Погода в Колпаковке

Россия / Свердловская область     57°27′23″N   58°48′47″E
темп.,
°C
ветер,
м/с
пор.,
м/с
влажн.,
%
обл.,
%
осадки,
мм/ч
давл.,
гПа
погр.,
м
16 января, вс
вс1623:00−13в3795100 1.6 981272
02:00−12в2695100 0.4 981195
05:00−10вюв2896100 1.0 981230
08:00−10ю41093100 1.3 983662
11:00−11ююз51190100 1.4 986744
14:00−11ююз3687100 0.1 988732
17:00−15ю1198100 0.2 9899
20:00−15з2696100 0.2 990295
17 января, пн
пн1723:00−16з3795100 0.4 991342
02:00−16з4995100 0.2 993434
05:00−16з41094100 0.4 996540
08:00−15з41193100 0.1 998625
11:00−14зюз41193100 0.1 1000616
14:00−12зюз51392100 0.1 1002584
17:00−13юз51591100 0.1 1003564
20:00−12юз51592100 0.3 1004680
18 января, вт
вт1823:00−11юз61692100 0.7 1005741
02:00−11юз61689100 0.3 1006657
05:00−11юз51691100 0.3 1007663
08:00−11юз51691100 0.1 1008618
11:00−11юз61690100 0.1 1009650
14:00−9юз51490100 0.1 1010701
17:00−9юз51494100 0.6 1011691
20:00−8юз51493100 0.5 1012637
19 января, ср
ср1923:00−8юз51493100 0.8 1013589
02:00−7юз51493100 0.1 1014571
05:00−7юз41394100 0.4 1015575
08:00−7юз41494100 0.3 1016555
11:00−5юз41394100 0.6 1018618
14:00−4юз51293100 0.4 1019750
17:00−4юз41193100 0.5 1020767
20:00−5юз4129598 0.2 1022554
20 января, чт
чт2023:00−7юз41195100 0.3 1023399
02:00−8юз31195100 0.1 1025353
05:00−8юз31095100 0.3 1025324
08:00−9юз289793 0.1 1026219
11:00−10ююз2796100 0.1 1028183
14:00−7юз259397 0.1 1027257
17:00−11ю119968 0.1 102810
20:00−15ююв1110088 0.0 10289